This is the latest recevied weather packets stored in our database for station/object CW2401. If no packets are shown the sender has not sent any weather packets the latest 10 day(s).
| Time | Temp. | Humidity | Pressure | Rain* | Wind** | Luminosity | Snow |
|---|---|---|---|---|---|---|---|
| 1777032512 | 12.78° C | 87% | 1013.8 hPa | 0 mm | - | - | - |
| 1777030693 | 12.22° C | 86% | 1013.6 hPa | 0 mm | - | - | - |
| 1777030451 | 12.22° C | 85% | 1013.6 hPa | 0 mm | - | - | - |
| 1777027553 | 12.78° C | 83% | 1013.4 hPa | 0 mm | - | - | - |
| 1777027309 | 12.78° C | 83% | 1013.4 hPa | 0 mm | - | - | - |
| 1777027191 | 12.78° C | 83% | 1013.4 hPa | 0 mm | - | - | - |
| 1777026460 | 12.78° C | 82% | 1013.4 hPa | 0 mm | - | - | - |
| 1777025738 | 13.33° C | 83% | 1013.3 hPa | 0 mm | - | - | - |
| 1777024648 | 13.33° C | 83% | 1013.2 hPa | 0 mm | - | - | - |
| 1777024165 | 13.33° C | 82% | 1013.1 hPa | 0 mm | - | - | - |
| 1777022472 | 13.89° C | 79% | 1013 hPa | 0 mm | - | - | - |
| 1777021868 | 13.89° C | 79% | 1013 hPa | 0 mm | - | - | - |
| 1777021266 | 13.89° C | 80% | 1013 hPa | 0 mm | - | - | - |
| 1777019213 | 14.44° C | 76% | 1012.8 hPa | 0 mm | - | - | - |
| 1777019095 | 14.44° C | 76% | 1012.9 hPa | 0 mm | - | - | - |
| 1777018729 | 14.44° C | 77% | 1012.9 hPa | 0 mm | - | - | - |
| 1777018245 | 14.44° C | 77% | 1012.9 hPa | 0 mm | - | - | - |
| 1777016791 | 14.44° C | 77% | 1012.9 hPa | 0 mm | - | - | - |
| 1777016547 | 14.44° C | 77% | 1012.9 hPa | 0 mm | - | - | - |
| 1777015701 | 14.44° C | 79% | 1012.7 hPa | 0 mm | - | - | - |
| 1777015337 | 14.44° C | 78% | 1012.7 hPa | 0 mm | - | - | - |
| 1777015097 | 14.44° C | 78% | 1012.7 hPa | 0 mm | - | - | - |
| 1777014975 | 14.44° C | 78% | 1012.7 hPa | 0 mm | - | - | - |
| 1777013890 | 14.44° C | 79% | 1012.6 hPa | 0 mm | - | - | - |
| 1777013287 | 14.44° C | 79% | 1012.7 hPa | 0 mm | - | - | - |
* Rain latest hour (hover to see other rain measurements)
** Current wind speed in m/s (hover to see current wind gust speed)